FW3322 Weather Reports


Display with metric or nautical units.
time (UTC)temp
F
wind
direction
speed
MPH
gust
MPH
rain 1hr
in
rain 24hr
in
rain mn
in
humidity
%
barometer
mb
20260509111543 53 136 0.0 1.0 0.00 0.00 0.00 99 1010.9
20260509110042 53 142 0.0 2.0 0.00 0.00 0.00 99 1010.8
20260509104543 53 136 0.0 2.0 0.00 0.00 0.00 98 1010.7
20260509103050 53 132 0.0 0.0 0.00 0.00 0.00 98 1010.6
20260509101558 53 132 0.0 0.0 0.00 0.00 0.00 98 1010.6
20260509100040 53 140 0.0 0.0 0.00 0.00 0.00 98 1010.6
20260509094542 53 139 0.0 2.0 0.00 0.00 0.00 98 1010.9
20260509093037 50 207 0.0 0.0 0.00 0.00 0.00 97 1011.0
20260509091537 50 207 0.0 0.0 0.00 0.00 0.00 97 1010.9
20260509090040 50 207 0.0 0.0 0.00 0.00 0.00 97 1010.9
20260509084534 50 207 0.0 0.0 0.00 0.00 0.00 97 1010.8
20260509083049 51 207 0.0 0.0 0.00 0.00 0.00 97 1010.7
20260509081532 51 207 0.0 0.0 0.00 0.00 0.00 97 1010.7
20260509080031 51 207 0.0 0.0 0.00 0.00 0.00 97 1010.6
20260509074529 51 207 0.0 0.0 0.00 0.00 0.00 97 1010.7
20260509073031 51 207 0.0 0.0 0.00 0.00 0.00 97 1010.8
20260509071534 51 207 0.0 0.0 0.00 0.00 0.00 97 1010.8
20260509070024 52 207 0.0 0.0 0.00 0.00 0.00 97 1010.9
20260509064525 52 207 0.0 0.0 0.00 0.00 0.00 97 1010.9
20260509063023 52 207 0.0 0.0 0.00 0.00 0.00 96 1010.8
20260509061522 53 207 0.0 0.0 0.00 0.00 0.00 96 1010.9
20260509060016 53 207 0.0 0.0 0.00 0.00 0.00 96 1011.0
20260509054514 53 207 0.0 0.0 0.00 0.00 0.00 96 1011.1
20260509053016 54 207 0.0 0.0 0.00 0.00 0.00 96 1011.0
20260509051511 54 207 0.0 0.0 0.00 0.00 0.00 96 1011.2
20260509050014 55 207 0.0 0.0 0.00 0.00 0.00 95 1011.1
20260509044507 55 207 0.0 0.0 0.00 0.00 0.00 95 1011.3
20260509043006 56 207 0.0 0.0 0.00 0.00 0.00 94 1011.1
20260509041506 57 204 0.0 0.0 0.00 0.00 0.00 93 1011.1
20260509040004 59 327 0.0 0.0 0.00 0.00 0.00 92 1011.1
20260509034504 60 327 0.0 1.0 0.00 0.00 0.00 91 1010.9
20260509033003 61 16 0.0 1.0 0.00 0.00 0.00 90 1010.8
20260509031506 62 17 1.0 2.0 0.00 0.00 0.00 89 1010.7
20260509030002 62 34 0.0 2.0 0.00 0.00 0.00 89 1010.4
20260509024506 62 334 3.0 7.0 0.00 0.00 0.00 89 1010.2
20260509023101 62 215 0.0 0.0 0.00 0.00 0.00 88 1009.7
20260509021602 63 229 0.0 2.0 0.00 0.00 0.00 86 1009.6
20260509020108 64 275 0.0 0.0 0.00 0.00 0.00 84 1009.5
20260509020003 64 274 0.0 0.0 0.00 0.00 0.00 84 1009.5
20260509014559 64 263 0.0 1.0 0.00 0.00 0.00 82 1009.0
20260509013101 65 286 1.0 7.0 0.00 0.00 0.00 81 1008.6
20260509011600 66 279 4.0 10.0 0.00 0.00 0.00 80 1008.4
20260509010057 68 309 4.0 7.0 0.00 0.00 0.00 78 1008.4
20260509004600 68 338 4.0 6.0 0.00 0.00 0.00 77 1008.0
20260509003058 68 281 0.0 5.0 0.00 0.00 0.00 77 1007.9
20260509001555 68 285 1.0 3.0 0.00 0.00 0.00 77 1007.7
20260509000055 68 227 1.0 5.0 0.00 0.00 0.00 75 1007.1
20260508234553 68 217 0.0 4.0 0.00 0.00 0.00 74 1007.0
20260508233052 69 125 1.0 2.0 0.00 0.00 0.00 73 1006.8
20260508231552 70 210 1.0 4.0 0.00 0.00 0.00 73 1006.7
20260508230049 70 189 3.0 6.0 0.00 0.00 0.00 71 1006.4
20260508224608 71 188 3.0 9.0 0.00 0.00 0.00 70 1007.2
20260508223051 72 192 5.0 8.0 0.00 0.00 0.00 67 1007.6
20260508221542 73 178 3.0 8.0 0.00 0.00 0.00 65 1008.0
20260508220048 74 130 0.0 6.0 0.00 0.00 0.00 64 1008.5
20260508214538 74 152 2.0 7.0 0.00 0.00 0.00 62 1008.6
20260508213037 74 221 1.0 7.0 0.00 0.00 0.00 61 1008.7
20260508211537 74 242 1.0 8.0 0.00 0.00 0.00 59 1008.8
20260508210039 75 227 5.0 11.0 0.00 0.00 0.00 58 1008.8
20260508204536 76 223 5.0 13.0 0.00 0.00 0.00 59 1009.0
20260508203041 78 217 5.0 13.0 0.00 0.00 0.00 55 1008.9
20260508201534 77 152 7.0 13.0 0.00 0.00 0.00 57 1008.6
20260508200032 77 138 5.0 11.0 0.00 0.00 0.00 59 1009.1
20260508194535 78 210 4.0 19.0 0.00 0.00 0.00 59 1009.3
20260508193025 77 144 5.0 13.0 0.00 0.00 0.00 58 1009.6
20260508191532 76 219 4.0 18.0 0.00 0.00 0.00 59 1009.8
20260508190023 76 148 6.0 12.0 0.00 0.00 0.00 59 1009.7
20260508184522 76 203 7.0 16.0 0.00 0.00 0.00 60 1010.0
20260508183025 76 234 5.0 12.0 0.00 0.00 0.00 61 1010.2
20260508181516 75 188 4.0 12.0 0.00 0.00 0.00 60 1010.4
20260508180014 74 198 6.0 14.0 0.00 0.00 0.00 62 1010.7
20260508174508 74 234 3.0 13.0 0.00 0.00 0.00 62 1011.0
20260508173005 74 217 4.0 13.0 0.00 0.00 0.00 63 1011.3
20260508171508 73 219 8.0 14.0 0.00 0.00 0.00 63 1011.3
20260508170002 73 163 6.0 11.0 0.00 0.00 0.00 64 1011.5
20260508164558 71 245 5.0 14.0 0.00 0.00 0.00 65 1011.9
20260508163055 71 227 6.0 18.0 0.00 0.00 0.00 65 1011.9
20260508161558 70 211 6.0 14.0 0.00 0.00 0.00 67 1012.1
20260508160049 69 138 4.0 18.0 0.00 0.00 0.00 69 1012.3
20260508154606 69 165 3.0 15.0 0.00 0.00 0.00 70 1012.5
20260508153046 69 223 5.0 13.0 0.00 0.00 0.00 70 1012.7
20260508151541 67 178 6.0 14.0 0.00 0.00 0.00 71 1012.8
20260508150053 67 130 5.0 10.0 0.00 0.00 0.00 72 1012.9
20260508144536 66 250 1.0 10.0 0.00 0.00 0.00 74 1013.3
20260508143043 64 171 2.0 8.0 0.00 0.00 0.00 76 1013.5
20260508141530 63 284 3.0 11.0 0.00 0.00 0.00 75 1013.7
20260508140028 62 196 2.0 7.0 0.00 0.00 0.00 76 1013.7
20260508134524 60 147 1.0 9.0 0.00 0.00 0.00 78 1014.0
20260508133020 59 218 5.0 10.0 0.00 0.00 0.00 78 1013.9
20260508131519 59 220 3.0 11.0 0.00 0.00 0.00 78 1013.9
20260508130014 58 244 3.0 8.0 0.00 0.00 0.00 79 1014.0
20260508124511 57 150 2.0 7.0 0.00 0.00 0.00 80 1014.0
20260508123008 0 0.0 0.0 0.00 0.00 0.00 1014.0
20260508121503 0 0.0 0.0 0.00 0.00 0.00 1013.9
20260508114554 0 0.0 0.0 0.00 0.00 0.00 1013.4
20260508113052 0 0.0 0.0 0.00 0.00 0.00 1013.2